www.pogodaiklimat.ru
Время
и дата
19:53 19.07
20:53 19.07
21:53 19.07
22:53 19.07
23:53 19.07
00:53 20.07
01:10 20.07
01:53 20.07
02:38 20.07
02:53 20.07
03:28 20.07
03:53 20.07
04:53 20.07
05:53 20.07
06:53 20.07
07:53 20.07
08:38 20.07
08:53 20.07
09:53 20.07
10:53 20.07
11:53 20.07
12:53 20.07
13:53 20.07
14:41 20.07
14:53 20.07
15:12 20.07
15:26 20.07
15:53 20.07
16:30 20.07
16:53 20.07
17:03 20.07
17:53 20.07
18:00 20.07
18:53 20.07
19:53 20.07
20:04 20.07
20:53 20.07
21:53 20.07
22:53 20.07
23:53 20.07
00:53 21.07
01:53 21.07
02:53 21.07
03:53 21.07
04:53 21.07
05:53 21.07
06:53 21.07
07:53 21.07
Ветер
(напр.,м/с)
Видим. Явления Облачность Т
(С)
Тd
(С)
f
(%)
Тe
(С)
Тes
(С)
Комфортность P
(гПа)
Po
(гПа)
Тmin
(С)
Tmax
(С)
R
(мм)
R24
(мм)
S
(см)
СЗ 6 14 км ясно +17.8 +12.2 70 +17 +17 1015.3 1011.7
С 6 14 км ясно +16.7 +12.2 75 +16 +16 1015.7 1012.0
С 6 14 км ясно +16.1 +12.8 81 +15 +15 1016.0 1012.4 +16.1 +23.3
С 5 14 км ясно +16.1 +12.2 78 +15 +15 1015.9 1012.4
С 5 14 км ясно +15.6 +12.8 83 +14 +14 1015.6 1011.7
С 5 13 км 2/2 210 м +15.0 +12.8 87 +14 +14 1015.4 1011.7
СЗ 5 13 км 8/8 210 м +14.4 +12.8 90 +13 +13 1011.7
СЗ 4 13 км 10/10 180 м +14.4 +12.8 90 +13 +13 1015.2 1011.3
СЗ 4 13 км 10/10 120 м +14.4 +12.8 90 +13 +13 1011.3
СЗ 3 13 км 10/10 120 м +13.9 +12.8 93 +13 +13 1015.1 1011.3
СЗ 4 14 км 10/10 150 м +13.9 +12.8 93 +12 +12 1011.3
СЗ 2 14 км 10/10 150 м +13.9 +12.8 93 +13 +13 1015.2 1011.3 +13.9 +16.7
З 4 14 км 10/10 150 м +13.9 +12.8 93 +12 +12 1015.4 1011.7
З 3 6 км дымка 10/10 150 м +13.9 +12.8 93 +13 +13 1015.9 1012.4
штиль 0 10 км дымка 10/10 180 м +14.4 +13.3 93 +14 +14 1016.4 1012.7
СЗ 2 13 км 10/10 210 м +15.6 +12.8 83 +15 +15 1016.6 1013.0
З 2 14 км 10/10 300 м +16.7 +13.3 80 +17 +17 1012.7
СЗ 3 16 км 10/10 330 м +17.8 +13.3 75 +18 +18 1016.4 1012.7
СЗ 4 16 км 5/5 390 м +18.3 +13.3 73 +19 +23 1016.5 1012.7 +13.9 +18.3
СЗ 6 14 км ясно +18.9 +12.8 68 +19 +26 1016.4 1012.7
СЗ 7 14 км ясно +19.4 +12.8 66 +20 +26 1016.5 1012.7
СЗ 7
{12}
13 км 2/2 450 м +19.4 +12.8 66 +20 +25 1016.4 1012.7
З 6 13 км ясно +18.3 +12.2 68 +18 +26 1016.4 1012.7
З 7
{10}
13 км 8/8 390 м +18.9 +12.8 68 +19 +20 1012.4
СЗ 7 13 км 8/8 390 м +17.8 +12.8 73 +17 +18 1016.0 1012.4
СЗ 6
{11}
14 км 2/2 360 м +18.3 +12.8 70 +18 +22 1012.4
СЗ 7 14 км 8/8 360 м +17.8 +12.8 73 +17 +18 1012.4
СЗ 6 14 км 8/8 360 м +17.8 +12.8 73 +17 +18 1015.9 1012.4 +17.2 +20.0
СЗ 7 14 км 5/5 390 м +18.3 +12.8 70 +18 +19 1012.0
СЗ 6 14 км ясно +17.8 +12.8 73 +17 +20 1015.6 1012.0
СЗ 7
{11}
14 км 8/8 390 м +17.8 +12.8 73 +17 +17 1012.0
СЗ 7
{10}
14 км 8/8 390 м +17.2 +12.8 75 +16 +16 1015.8 1012.0
СЗ 7 14 км ясно +17.2 +12.8 75 +16 +16 1012.0
СЗ 6 14 км 2/2 360 м +16.1 +12.2 78 +15 +15 1016.4 1012.7
СЗ 6
{10}
14 км 8/8 300 м +15.6 +12.2 80 +14 +14 1016.5 1012.7
СЗ 6 14 км 8/8 270 м +15.6 +12.2 80 +14 +14 1013.0
СЗ 3 14 км 10/10 270 м +15.0 +12.2 83 +14 +14 1017.2 1013.4
СЗ 5 13 км 10/10 210 м +14.4 +12.2 87 +13 +13 1017.3 1013.7 +14.4 +18.3
СЗ 4 13 км 10/10 180 м +14.4 +12.8 90 +13 +13 1017.3 1013.4
З 7 14 км 10/10 180 м +14.4 +12.2 87 +12 +12 1017.2 1013.4
З 4 13 км 10/10 150 м +13.9 +12.2 89 +12 +12 1016.9 1013.0
СЗ 4 16 км 10/10 150 м +13.9 +12.2 89 +12 +12 1016.7 1013.0
З 4 16 км 10/10 180 м +13.9 +12.2 89 +12 +12 1016.5 1012.7
СЗ 4 14 км 10/10 150 м +13.9 +12.2 89 +12 +12 1016.4 1012.7 +13.9 +15.0
СЗ 5 14 км 10/10 150 м +13.3 +12.2 93 +11 +11 1016.7 1013.0
СЗ 4 10 км дымка 10/10 150 м +13.3 +12.2 93 +12 +12 1017.0 1013.4
З 4 13 км 10/10 150 м +13.9 +12.2 89 +12 +12 1017.3 1013.7
СЗ 5 16 км 10/10 210 м +14.4 +12.2 87 +13 +13 1017.4 1013.7
Местоположение метеостанции Salinas Municipal Airport: широта 36.6636 долгота -121.6081 высота над уровнем моря 23 м.
В архиве по умолчанию представлена погода в Салинасе за последние 1-2 суток. Обновление информации о фактической погоде в базе происходит ежечасно! Архивные данные за месяц целиком и за предыдущие месяцы Вы можете получить, выбрав интересующий диапазон дат из раскрывающегося списка и нажав кнопку "Ввод!".
Внимание! Архив погоды МЕТАР в базе сайта по станциям, не включенным в климатический монитор, хранится не более 60 дней. Нет смысла пытаться выбрать более раннюю дату.
*Определитесь, кто Вы:
Внимание! Время в таблицах - местное (без учета летнего времени). Для получения всемирного времени необходимо вычесть поправку, которая равна -8 ч.
Смотрите также архив погоды в соседних городах и на ближайших метеорологических станциях:
Партнеры нашего сайта:      
Пояснения к столбцам:
  • Ветер - указаны скорость ветра в м/с - средняя за 10 мин, порывы в срок и между сроками (в фигурных скобках) и направление, откуда дует ветер: С - северный,
  • СВ - северо-восточный, В - восточный, ЮВ - юго-восточный, Ю - южный, ЮЗ - юго-западный, З - западный, СЗ - северо-западный.
  • Видимость - горизонтальная дальность видимости в метрах или километрах. При видимости от 1 до 10 км при отсутствии осадков обычно наблюдается дымка, при ухудшении видимости до 1 км и менее - туман. В сухую погоду видимость может ухудшаться дымом, пылью или мглою.
  • Явления - указаны атмосферные явления, наблюдавшиеся в срок или в последний час перед сроком; фигурными скобками обозначены явления, наблюдавшиеся между сроками (за 1-3 часа до срока); квадратными скобками обозначены град или гололедные отложения с указанием их диаметра в мм.
  • Облачность - указаны через наклонную черту общая и нижняя облачность в баллах и высота нижней границы облаков в метрах; квадратными скобками обозначены формы облаков: Ci - перистые, Cs - перисто-слоистые, Cc - перисто-кучевые, Ac - высококучевые, As - высокослоистые, Sc - слоисто-кучевые, Ns - слоисто-дождевые, Cu - кучевые, Cb - кучево-дождевые. Подробнее классификацию облаков см. в Атласе облаков (PDF).
  • T - Температура воздуха - температура, измеренная на высоте 2 м над землей.
  • Td - Температура точки росы - температура, при понижении до которой содержащийся в воздухе водяной пар достигнет насыщения.
  • f - Относительная влажность воздуха - влажноcть воздуха, измеренная на высоте 2 м над землей.
  • Te - Эффективная температура - температура, которую ощущает одетый по сезону человек в тени. Характеристика душности погоды. При расчете учитывается влияние влажности воздуха и скорости ветра на теплоощущения человека.
  • Tes - Эффективная температура на солнце - температура, которую ощущает человек, с поправкой на солнечный нагрев. Характеристика знойности погоды. Зависит от высоты солнца над горизонтом, облачности и скорости ветра. Ночью, в пасмурную погоду, а также при ветре 12 м/с и более поправка равна нулю.
  • P - Атмосферное давление - приведенное к уровню моря атмосферное давление.
  • Po - Атмосферное давление - измеренное на уровне метеостанции атмосферное давление.
  • Tmin - Минимальная температура - минимум температуры воздуха на высоте 2 м над землей.
  • Tmax - Максимальная температура - максимум температуры воздуха на высоте 2 м над землей.
  • R - Количество осадков - Количество выпавших осадков за период времени, мм. При наведении курсора мыши на число - период времени, за который выпало указанное количество осадков.
  • R24 - Количество осадков - Количество выпавших осадков за 24 часа, мм.
  • S - Снежный покров - Высота снежного покрова, см. При наведении курсора мыши на число - состояние снежного покрова и степень покрытия местности в баллах.